Tracking 19245 objects as of 15-Aug-2018
HD Live streaming from Space Station
objects crossing your sky now

SUPERBIRD C

Track SUPERBIRD C now!
SUPERBIRD C is classified as:


NORAD ID: 24880
Int'l Code: 1997-036A
Perigee: 36,114.1 km
Apogee: 36,150.8 km
Inclination: 7.4 °
Period: 1,453.4 minutes
Semi major axis: 42503 km
RCS: 12.5892 m2 (large)
Launch date: July 28, 1997
Source: Japan (JPN)
Launch site: AIR FORCE EASTERN TEST RANGE (AFETR)

14 Ku-band; Asia-Pacific region; voice and video communications.
aabbcc
Your satellite tracking list
Your tracking list is empty




NASA's NSSDC Master Catalog

Two Line Element Set (TLE):
1 24880U 97036A   18225.76753179 -.00000230  00000-0  00000+0 0  9995
2 24880   7.3705  51.5862 0004317 281.0213  79.0806  0.99075498 76908
Source of the keplerian elements: AFSPC